Weather History for KCGI - November, 2011

Change the Weather History Date:

Wednesday, November 16, 2011

  Actual Average Record
Temperature  
Mean Temperature 50 °F 47 °F  
Max Temperature 58 °F 57 °F 77 °F (1965)
Min Temperature 42 °F 36 °F 18 °F (1997)
Degree Days  
Heating Degree Days 15 18  
Month to date heating degree days 176 245  
Since 1 July heating degree days 463 548  
Cooling Degree Days 0 0  
Month to date cooling degree days 1 0  
Year to date cooling degree days 1698 1451  
Moisture  
Dew Point 35 °F    
Average Humidity 65    
Maximum Humidity 93    
Minimum Humidity 36    
Precipitation  
Precipitation 0.37 in 0.16 in 2.03 in (1987)
Month to date precipitation 5.26 2.24  
Year to date precipitation 64.25 40.36  
Sea Level Pressure  
Sea Level Pressure 30.01 in    
Wind  
Wind Speed 15 mph (North)    
Max Wind Speed 25 mph    
Max Gust Speed 31 mph    
Visibility 9 miles    
Events Rain    
T = Trace of Precipitation, MM = Missing Value Source: NWS Daily Summary

Daily Weather History Graph

Daily Weather History Graph

Search for Another Location

Airport or City:

Trip Planner

Search our weather history database for the weather conditions in past years. The results will help you decide how hot, cold, wet, or windy it might be!

Date:

Astronomy

Nov. 16, 2011 Rise Set
Actual Time 6:38 AM CST 4:47 PM CST
Civil Twilight 6:10 AM CST 5:15 PM CST
Nautical Twilight 5:38 AM CST 5:46 PM CST
Astronomical Twilight 5:07 AM CST 6:17 PM CST
Moon 10:00 PM CST (11/16) 11:14 AM CST (11/16)
Length of Visible Light 11h 05m
Length of Day
10h 09m
Waning Gibbous, 70% of the Moon is Illuminated
Nov 16
Waning Gibbous
Nov 18
Last Quarter
Nov 25
New
Dec 2
First Quarter
Dec 10
Full

Hourly Weather History & Observations

Time (CST) Temp. Windchill Dew Point Humidity Pressure Visibility Wind Dir Wind Speed Gust Speed Precip Events Conditions
12:53 AM 57.9 °F - 55.9 °F 93% 29.83 in 7.0 mi Calm Calm - 0.04 in Rain Light Rain
1:00 AM 57.2 °F - 55.4 °F 94% 29.85 in 7.0 mi Calm Calm - 0.00 in Rain Light Rain
1:35 AM 57.2 °F - 55.4 °F 94% 29.86 in 3.0 mi WNW 3.5 mph - 0.08 in Rain Rain
1:42 AM 57.2 °F - 55.4 °F 94% 29.85 in 3.0 mi NW 4.6 mph - 0.11 in Rain Rain
1:53 AM 57.9 °F - 55.9 °F 93% 29.85 in 3.0 mi NNW 3.5 mph - 0.13 in Rain Rain
2:53 AM 57.9 °F - 55.0 °F 90% 29.83 in 7.0 mi North 16.1 mph 20.7 mph 0.15 in Rain Light Rain
3:02 AM 57.2 °F - 53.6 °F 88% 29.83 in 7.0 mi NNW 17.3 mph 23.0 mph 0.01 in Rain Light Rain
3:53 AM 54.0 °F - 50.0 °F 86% 29.85 in 7.0 mi NNW 15.0 mph 23.0 mph 0.04 in Rain Light Rain
4:34 AM 53.6 °F - 46.4 °F 77% 29.86 in 10.0 mi North 16.1 mph - 0.01 in   Overcast
4:53 AM 53.1 °F - 44.1 °F 71% 29.87 in 10.0 mi North 20.7 mph 25.3 mph 0.01 in   Overcast
5:53 AM 50.0 °F - 36.0 °F 59% 29.91 in 10.0 mi North 16.1 mph 26.5 mph N/A   Overcast
6:26 AM 48.2 °F - 35.6 °F 62% 29.94 in 10.0 mi North 21.9 mph 26.5 mph N/A   Overcast
6:53 AM 48.0 °F - 34.0 °F 58% 29.96 in 10.0 mi North 17.3 mph - N/A   Overcast
7:53 AM 46.9 °F - 32.0 °F 56% 29.99 in 10.0 mi North 18.4 mph - N/A   Scattered Clouds
8:53 AM 46.0 °F 38.8 °F 28.9 °F 51% 30.00 in 10.0 mi North 18.4 mph 24.2 mph N/A   Clear
9:53 AM 46.9 °F - 28.0 °F 48% 30.02 in 10.0 mi North 21.9 mph 29.9 mph N/A   Clear
10:53 AM 48.0 °F - 27.0 °F 44% 30.04 in 10.0 mi North 20.7 mph 31.1 mph N/A   Clear
11:53 AM 50.0 °F - 27.0 °F 41% 30.04 in 10.0 mi NNE 23.0 mph 29.9 mph N/A   Clear
12:53 PM 51.1 °F - 27.0 °F 39% 30.04 in 10.0 mi NNE 17.3 mph 28.8 mph N/A   Clear
1:53 PM 52.0 °F - 27.0 °F 38% 30.06 in 10.0 mi North 18.4 mph 26.5 mph N/A   Clear
2:53 PM 50.0 °F - 24.1 °F 36% 30.09 in 10.0 mi North 19.6 mph - N/A   Clear
3:53 PM 48.0 °F - 26.1 °F 42% 30.12 in 10.0 mi North 15.0 mph 23.0 mph N/A   Clear
4:53 PM 46.0 °F 39.0 °F 23.0 °F 40% 30.14 in 10.0 mi North 17.3 mph - N/A   Clear
5:53 PM 44.6 °F 37.4 °F 24.8 °F 46% 30.15 in 10.0 mi North 16.1 mph - N/A   Clear
6:53 PM 44.1 °F 38.1 °F 23.0 °F 43% 30.20 in 10.0 mi North 11.5 mph 21.9 mph N/A   Clear
7:53 PM 44.1 °F 37.1 °F 23.0 °F 43% 30.22 in 10.0 mi North 15.0 mph - N/A   Clear
8:53 PM 43.0 °F 37.2 °F 23.0 °F 45% 30.25 in 10.0 mi North 10.4 mph - N/A   Clear
9:53 PM 43.0 °F 37.7 °F 21.9 °F 43% 30.25 in 10.0 mi North 9.2 mph - N/A   Mostly Cloudy
10:53 PM 43.0 °F 38.2 °F 21.9 °F 43% 30.24 in 10.0 mi North 8.1 mph - N/A   Overcast
11:53 PM 42.1 °F 36.1 °F 21.9 °F 45% 30.26 in 10.0 mi North 10.4 mph - N/A   Overcast